Flag for Germany Weather past 2 weeks in Dachau, Bavaria, Germany

Now
55 °F

Drizzle. Mostly cloudy.


Feels Like: 55 °F
Forecast: 56 / 72 °F
Wind: 1 mph from North

Location: Munich / Franz Josef Strauss Airport

Current Time: Sep 3, 2014 at 5:08:16 AM

Latest Report: Sep 3, 2014 at 4:20 AM


Visibility: 3 mi

Pressure: 30.12 "Hg

Humidity: 94%

Dew point: 54 °F

Location of DachauLocation

Historic Weather in Dachau — Graph

°F

Dachau temperature yesterday

Maximum temperature yesterday: 63 °F (at 2:20 PM)
Minimum temperature yesterday: 52 °F (at 3:20 AM)
Average temperature yesterday: 57 °F

Past Weeks' High & Low Weather Summary

 TemperatureHumidityPressure
High73 °F (Aug 30, 5:50 PM)100% (Aug 21, 4:20 AM)30.15 "Hg (Aug 21, 4:20 AM)
Low43 °F (Aug 25, 3:50 AM)37% (Aug 21, 4:20 PM)29.74 "Hg (Aug 26, 8:20 AM)
Average58 °F80%30.03 "Hg
* Reported Aug 19 3:20 AM — Sep 3 3:50 AM, Dachau, Weather by CustomWeather, © 2014

Note: Actual official high and low records may vary slightly from our data, if they occured in-between our weather recording intervals... More about our weather records

Advertising

Dachau weather history for previous 24 hours

 ConditionsComfort  
Time TempWeatherWind HumidityBarometerVisibility
3:50 AM
Sep 3
54 °FDrizzle. Mostly cloudy.1 mph100%30.12 "Hg2 mi
3:20 AM54 °FDrizzle. Mostly cloudy.2 mph100%30.12 "Hg3 mi
2:50 AM54 °FDrizzle. Mostly cloudy.2 mph100%30.12 "Hg4 mi
2:20 AM54 °FDrizzle. Mostly cloudy.2 mph100%30.15 "Hg4 mi
1:50 AM54 °FPassing clouds.5 mph100%30.15 "Hg5 mi
1:20 AM54 °FPassing clouds.2 mph100%30.15 "Hg6 mi
12:50 AM54 °FLight rain. Partly cloudy.2 mph100%30.15 "HgN/A
12:20 AM55 °FLight rain. Partly cloudy.3 mph88%30.15 "HgN/A
11:50 PM
Sep 2
55 °FLight rain. Partly cloudy.6 mph88%30.15 "HgN/A
11:20 PM55 °FLight rain. Partly cloudy.6 mph88%30.15 "HgN/A
10:50 PM55 °FPartly cloudy.7 mph94%30.15 "HgN/A
10:20 PM55 °FPartly cloudy.6 mph94%30.15 "HgN/A
9:50 PM55 °FPartly cloudy.7 mph94%30.15 "HgN/A
8:50 PM57 °FLight rain. Broken clouds.6 mph88%30.15 "HgN/A
8:20 PM59 °FBroken clouds.5 mph88%30.15 "HgN/A
7:50 PM59 °FBroken clouds.1 mph88%30.12 "HgN/A
7:20 PM61 °FBroken clouds.2 mph77%30.12 "HgN/A
6:50 PM61 °FScattered showers. Broken clouds.2 mph77%30.12 "HgN/A
6:20 PM61 °FScattered showers. Broken clouds.2 mph77%30.12 "HgN/A
5:50 PM61 °FScattered showers. Broken clouds.3 mph77%30.12 "HgN/A
5:20 PM61 °FScattered showers. Broken clouds.5 mph77%30.12 "HgN/A
4:50 PM61 °FBroken clouds.7 mph77%30.12 "HgN/A
4:20 PM61 °FBroken clouds.6 mph72%30.12 "HgN/A
3:20 PM63 °FPartly sunny.6 mph68%30.12 "HgN/A
2:50 PM63 °FPartly sunny.5 mph73%30.12 "HgN/A
2:20 PM63 °FPartly sunny.8 mph68%30.12 "HgN/A
1:50 PM61 °FPartly sunny.8 mph72%30.12 "HgN/A
1:20 PM61 °FPartly sunny.8 mph72%30.12 "HgN/A
12:50 PM61 °FBroken clouds.6 mph72%30.12 "HgN/A
12:20 PM59 °FBroken clouds.6 mph77%30.15 "HgN/A
11:50 AM59 °FBroken clouds.3 mph77%30.15 "HgN/A
11:20 AM59 °FBroken clouds.6 mph77%30.15 "HgN/A
10:50 AM59 °FBroken clouds.6 mph77%30.15 "HgN/A
10:20 AM59 °FBroken clouds.7 mph82%30.12 "HgN/A
9:50 AM57 °FBroken clouds.7 mph82%30.12 "HgN/A
9:20 AM55 °FPartly sunny.3 mph94%30.12 "HgN/A
8:50 AM55 °FLight rain. Partly sunny.5 mph88%30.12 "Hg5 mi
8:20 AM55 °FLight rain. Partly sunny.5 mph88%30.12 "Hg4 mi
7:50 AM54 °FBroken clouds.3 mph94%30.12 "Hg4 mi
7:20 AM54 °FPassing clouds.5 mph94%30.12 "Hg4 mi
6:50 AM54 °FPassing clouds.3 mph94%30.12 "Hg4 mi
6:20 AM54 °FPassing clouds.5 mph94%30.12 "HgN/A
5:50 AM54 °FPassing clouds.5 mph94%30.12 "HgN/A
5:20 AM54 °FPartly cloudy.7 mph94%30.12 "HgN/A
Weather by CustomWeather, © 2014

See weather overviewHow to use our weather pages